This is the latest recevied weather packets stored in our database for station/object KA6UPU-1. If no packets are shown the sender has not sent any weather packets the latest 10 day(s).
| Time | Temp. | Humidity | Pressure | Rain* | Wind** | Luminosity | Snow |
|---|---|---|---|---|---|---|---|
| 1788291540 | 22.78° C | 49% | 1015.8 hPa | 0 mm | - | - | - |
| 1788291232 | 23.33° C | 48% | 1015.8 hPa | 0 mm | - | - | - |
| 1788290632 | 22.78° C | 49% | 1016 hPa | 0 mm | - | - | - |
| 1788290332 | 22.78° C | 51% | 1016 hPa | 0 mm | - | - | - |
| 1788289732 | 21.67° C | 52% | 1016 hPa | 0 mm | - | - | - |
| 1788288832 | 21.11° C | 55% | 1016.1 hPa | 0 mm | - | - | - |
| 1788288532 | 20.56° C | 57% | 1016.1 hPa | 0 mm | - | - | - |
| 1788288232 | 20° C | 58% | 1016.1 hPa | 0 mm | - | - | - |
| 1788287932 | 20° C | 58% | 1016.1 hPa | 0 mm | - | - | - |
| 1788287632 | 20° C | 58% | 1016.1 hPa | 0 mm | - | - | - |
| 1788287332 | 20° C | 59% | 1016.1 hPa | 0 mm | - | - | - |
| 1788287033 | 20° C | 60% | 1016.2 hPa | 0 mm | - | - | - |
| 1788286732 | 19.44° C | 60% | 1016.1 hPa | 0 mm | - | - | - |
| 1788286132 | 19.44° C | 60% | 1016.1 hPa | 0 mm | - | - | - |
| 1788285832 | 19.44° C | 60% | 1016.1 hPa | 0 mm | - | - | - |
| 1788285532 | 20° C | 60% | 1016.1 hPa | 0 mm | - | - | - |
| 1788285234 | 20° C | 60% | 1016 hPa | 0 mm | - | - | - |
| 1788284932 | 20° C | 61% | 1015.9 hPa | 0 mm | - | - | - |
| 1788284332 | 20° C | 60% | 1015.8 hPa | 0 mm | - | - | - |
| 1788284032 | 20.56° C | 60% | 1015.8 hPa | 0 mm | - | - | - |
| 1788283732 | 20° C | 62% | 1015.6 hPa | 0 mm | - | - | - |
| 1788283432 | 20° C | 61% | 1015.7 hPa | 0 mm | - | - | - |
| 1788283132 | 20° C | 60% | 1015.9 hPa | 0 mm | - | - | - |
| 1788282832 | 20° C | 61% | 1015.7 hPa | 0 mm | - | - | - |
| 1788282532 | 20° C | 62% | 1015.7 hPa | 0 mm | - | - | - |
* Rain latest hour (hover to see other rain measurements)
** Current wind speed in m/s (hover to see current wind gust speed)